Tracking 18843 objects as of 20-November-2017
HD Live streaming from Space Station
objects crossing your sky now

COSMOS 1515

Track COSMOS 1515 now!
10-day predictions
COSMOS 1515 is classified as:


NORAD ID: 14551
Int'l Code: 1983-122A
Perigee: 515.1 km
Apogee: 527.4 km
Inclination: 82.5 °
Period: 94.9 minutes
Semi major axis: 6892 km
RCS: 7.718 m2 (large)
Launch date: December 15, 1983
Source: Commonwealth of Independent States (former USSR) (CIS)
Launch site: PLESETSK MISSILE AND SPACE COMPLEX (PKMTR)
aabbcc
Your satellite tracking list
Your tracking list is empty




NASA's NSSDC Master Catalog

Two Line Element Set (TLE):
1 14551U 83122A   17324.61873385 +.00000763 +00000-0 +36685-4 0  9998
2 14551 082.5008 020.1455 0008874 109.0085 006.3492 15.17268334593289
Source of the keplerian elements: AFSPC